Starlink 35037

operational
NORAD ID: 65483 Int'l Des: 2025-195 Owner: SPXS Country: US Constellation: starlink
LEOCIRCULAR

Über Starlink 35037

Beschreibung wird geladen...

Live-Position

3D-Globus wird geladen...

Nächste Überflüge

Höhenverlauf

Altitude vs Time

uPlot chart will show altitude changes over time

Zweizeiliger Elementsatz

1 65483U 25195AB 25294.58336806 -.01530474 00000-0 -51853-1 0 9998
2 65483 53.1599 184.2229 0001048 96.1554 16.9303 15.33463639 5988
Epoch: 21. Okt. 2025 • Age: 7 hours

Aktueller Status

Höhe 469.2 km
Geschwindigkeit 7.63 km/s
Subsatellitenpunkt 2.94°N, 165.83°W
Startdatum 3. Sept. 2025
Alter 0.1 years
Typ internet

Technische Details

Klassifizierung Payload
Masse 575.00 kg
Trockenmasse 530.00 kg
Gesamtmasse 575.00 kg
Länge 0.30 m
Durchmesser 4.10 m
Spannweite 29.00 m
Form Box + pan
Hersteller SPXS
Bus-Typ Starlink V2MO
Phasenstatus In Orbit
Besitzer/Staat SPXS/US

Große Konstellationen

Loading constellations...